Location: Cassagne
(43.1218°N, 0.9901°E)
Time: 18:23:44
(UTC+00:00)

Cosmos 1743 Rocket - Pass Details

Date: 17 February 2020
Orbit: 604 x 633 km, 82.6° (Epoch: 27 March)

Event Time Altitude Azimuth Distance (km) Brightness Sun altitude
Rises 05:07:38 0° 351° (N) 2,871 6.9 -19.6°
Reaches altitude 10° 05:09:52 10° 350° (N) 1,962 6.0 -19.2°
Maximum altitude 05:14:12 83° 263° (W) 615 3.4 -18.4°
Drops below altitude 10° 05:18:31 10° 176° (S) 1,948 6.2 -17.7°
Sets 05:20:43 0° 175° (S) 2,849 7.0 -17.3°
